Zurück zum Katalog

IMS-1

AktivWissenschaftSSO
NORAD 32786·PAYLOAD·🇮🇳 India

Gestartet Apr 28, 2008 von Satish Dhawan Space Centre

Loading…

Nächste Überflüge (nächste 24 Stunden)

TLE

AktuellSource: Space-Track

Epoche: Sep 14, 2026, 10:35 UTC

1 32786U 08021D   26257.44112565  .00003285  00000-0  23607-3 0  9996
2 32786  97.9566 246.4692 0005317 136.7914 223.3730 15.05002696996626

Verfolge IMS-1 in Echtzeit mit AllMySat

Download on the App Store